Wetbulb
79.59 76.29 76.15 77.85 76.29 76.05 75.77 75.83 78.03 77.78 78.37 78.92 78.79 79.07 79.03 77.74 76.66 76.46 75.45 74.27 73.51 69.69
78.87 78.70 77.08 79.16 79.74 77.03 79.23 76.71 77.53 77.60 78.08 78.43 78.73 79.07 79.00 77.46 76.92 76.23 75.77 74.82 74.18 71.78
78.53 78.92 79.19 79.49 79.16 79.59 79.80 79.32 78.01 77.63 77.66 78.14 78.56 78.95 79.07 77.98 77.79 76.50 75.07 74.26 74.00 73.38
78.40 78.08 78.54 78.35 79.45 79.86 80.16 80.57 79.06 79.23 77.75 77.42 78.27 78.97 78.68 78.45 77.85 76.49 75.66 74.83 73.87 73.67
78.89 78.88 78.24 78.49 79.28 80.05 79.86 80.68 80.63 79.52 78.94 78.09 77.96 79.16 78.34 77.64 77.06 76.32 75.32 74.58 74.03 73.18
78.19 78.51 78.67 79.15 79.26 79.55 79.78 80.12 79.69 80.04 79.84 79.10 78.57 78.65 78.32 78.07 77.41 76.66 76.02 75.26 74.41 73.33
78.13 78.33 78.61 79.05 79.15 79.19 79.83 79.77 79.98 80.18 80.29 79.81 79.36 78.89 78.22 77.68 77.47 77.38 76.41 76.10 75.25 74.33
78.22 79.08 79.26 79.16 79.48 79.67 79.86 79.74 80.01 79.79 80.11 79.90 79.27 77.51 78.65 78.78 78.15 78.08 76.76 76.54 75.67 74.90
78.31 78.99 78.84 79.01 79.23 79.63 79.60 79.80 79.72 79.51 79.61 79.13 77.99 70.52 67.93 75.58 78.16 78.17 77.58 76.91 76.77 76.56
78.39 78.44 78.84 78.71 78.90 79.06 78.98 79.09 79.24 79.24 79.23 78.90 79.29 66.77 65.79 68.55 78.06 77.93 77.99 78.17 77.75 75.26
78.31 78.24 78.67 78.82 78.56 78.99 78.98 78.67 79.04 79.12 79.18 79.18 78.97 66.20 63.57 66.55 76.48 77.74 78.61 78.70 78.45 77.89
78.07 78.07 78.42 78.13 78.18 78.95 78.12 78.03 77.81 78.26 79.18 79.20 78.70 63.33 61.36 65.67 75.54 75.94 77.84 78.84 78.92 78.37
78.48 78.28 78.06 78.31 78.30 78.70 78.39 76.88 76.86 76.87 78.38 73.94 78.45 67.03 59.60 63.76 73.88 73.94 73.77 76.30 76.85 67.36
78.96 78.89 79.03 79.29 78.87 78.45 77.64 77.68 77.44 76.88 78.35 77.86 76.87 76.83 59.84 57.79 70.78 72.04 72.34 74.01 74.56 76.08
MSLP
1011.94 1012.40 1012.73 1012.91 1012.90 1013.00 1013.16 1013.30 1013.97 1014.66 1014.99 1015.42 1015.63 1016.05 1016.39 1016.78 1017.15 1017.47 1017.92 1018.12 1018.09 1017.61
1010.85 1011.38 1011.43 1011.92 1012.33 1012.70 1012.78 1012.78 1013.40 1014.04 1014.53 1014.75 1015.03 1015.46 1016.01 1016.24 1016.61 1016.88 1017.39 1017.62 1018.00 1017.90
1009.58 1010.26 1010.74 1011.15 1011.55 1011.66 1011.95 1012.44 1012.55 1013.34 1013.85 1014.27 1014.62 1015.05 1015.54 1015.61 1016.07 1016.55 1016.76 1016.95 1017.33 1017.65
1008.20 1008.92 1009.59 1009.99 1010.36 1010.82 1011.30 1011.71 1012.23 1012.56 1013.19 1013.59 1013.99 1014.48 1014.89 1015.10 1015.16 1015.87 1016.24 1016.44 1016.66 1017.15
1006.88 1007.58 1008.07 1008.56 1009.10 1009.75 1010.26 1010.87 1011.36 1011.86 1012.31 1012.67 1013.08 1013.60 1014.03 1014.32 1014.33 1014.90 1015.39 1015.80 1016.19 1016.55
1005.65 1006.14 1006.59 1007.21 1007.93 1008.45 1009.05 1009.66 1010.26 1010.81 1011.21 1011.63 1012.05 1012.48 1012.92 1013.23 1013.55 1013.83 1014.50 1014.93 1015.40 1015.83
1004.23 1004.55 1005.14 1006.11 1006.77 1007.41 1008.01 1008.59 1009.09 1009.59 1010.09 1010.46 1010.92 1011.40 1011.80 1012.36 1012.74 1012.98 1013.36 1013.99 1014.44 1014.94
1002.85 1003.68 1004.50 1005.18 1005.85 1006.54 1007.01 1007.41 1007.83 1008.33 1008.84 1009.28 1009.68 1010.06 1010.64 1011.03 1011.37 1011.71 1012.29 1012.88 1013.31 1013.86
1001.96 1002.78 1003.33 1004.11 1004.85 1005.58 1005.99 1006.46 1007.00 1007.20 1007.60 1007.96 1008.04 1008.24 1009.07 1009.67 1010.01 1010.49 1011.23 1011.70 1012.27 1012.89
1001.16 1001.80 1002.48 1003.32 1004.04 1004.26 1004.71 1005.51 1005.75 1006.13 1006.40 1006.55 1007.06 1007.30 1007.98 1008.87 1009.43 1009.57 1009.80 1010.53 1011.07 1011.75
1000.20 1000.95 1001.82 1002.46 1002.60 1003.06 1003.72 1004.06 1004.42 1004.74 1005.22 1005.66 1005.66 1006.38 1007.13 1008.05 1008.77 1008.60 1009.07 1009.87 1010.29 1010.63
999.22 999.97 1000.61 1001.02 1001.28 1002.26 1003.21 1003.71 1004.28 1004.66 1004.89 1005.27 1005.93 1006.59 1007.46 1008.29 1008.10 1008.08 1008.13 1008.54 1008.59 1009.41
998.07 998.86 999.29 999.93 1001.00 1001.61 1002.19 1002.63 1003.00 1003.26 1003.61 1004.16 1004.96 1005.76 1007.00 1008.27 1008.82 1008.91 1009.38 1008.82 1007.94 1007.63
997.36 998.01 998.73 999.50 1000.15 1000.82 1001.33 1001.67 1002.13 1002.04 1002.56 1002.93 1003.58 1003.89 1004.37 1006.13 1007.35 1007.06 1007.14 1007.48 1006.30 1006.77
Wind_Speed
19 15 14 14 13 11 11 10 10 12 13 13 11 10 9 8 8 8 8 8 7 5
18 19 16 16 13 13 11 11 11 13 14 14 13 12 11 9 9 9 9 9 8 8
19 19 18 15 16 15 13 14 13 14 15 14 13 13 13 11 11 11 9 9 10 9
19 21 19 18 18 17 16 14 16 14 15 15 14 14 14 13 12 14 13 12 11 12
20 20 20 20 20 18 18 17 16 16 16 16 16 15 16 17 15 16 16 15 13 14
21 21 21 21 20 20 19 18 19 17 17 17 17 17 18 17 17 17 16 16 16 15
22 23 21 20 20 20 19 19 19 18 18 19 18 18 19 18 17 17 17 17 17 16
21 19 19 19 19 19 19 19 19 19 19 19 19 17 19 19 18 18 18 17 18 17
19 19 20 19 19 19 19 19 19 20 20 20 18 21 21 21 18 18 18 17 17 16
18 19 19 18 18 20 20 18 20 20 21 21 21 18 22 23 18 18 18 18 16 17
18 18 17 18 20 20 18 20 19 19 20 19 18 16 20 22 23 19 17 18 18 17
19 19 18 20 21 16 16 16 16 16 17 18 16 11 13 17 21 21 18 16 18 18
18 18 20 18 16 14 15 16 14 17 16 16 15 11 14 16 14 13 9 15 18 23
16 17 16 14 14 14 15 13 15 15 14 14 16 17 20 23 16 15 15 17 14 14
Wind_Direction
210 215 218 221 236 223 231 221 214 202 215 216 217 215 203 204 212 202 209 211 234 245
207 214 215 222 212 230 227 229 213 209 213 214 213 212 207 225 204 208 208 203 216 231
208 210 213 213 218 216 223 220 221 206 213 213 213 214 211 215 210 210 210 215 201 220
207 209 210 213 212 215 213 214 213 206 211 214 214 211 211 223 218 210 213 213 206 210
204 206 209 210 212 209 211 210 209 209 206 210 213 211 212 214 215 212 213 209 211 212
207 206 210 208 209 209 208 207 209 209 207 208 211 212 214 216 217 216 216 213 211 211
207 208 207 208 208 208 208 208 207 208 208 209 210 214 218 217 221 220 218 217 216 212
209 210 208 210 209 210 209 210 209 207 209 211 212 214 214 217 215 217 218 215 215 214
205 205 207 208 207 209 212 212 212 213 211 213 217 213 203 210 215 215 214 214 212 219
206 207 207 207 208 212 212 211 215 215 215 216 220 208 197 199 219 217 213 210 209 209
205 207 205 207 212 212 210 214 215 216 219 222 222 205 200 193 214 225 219 213 215 213
203 204 202 209 212 209 213 217 222 225 225 232 239 206 199 195 217 228 227 217 216 213
203 204 207 209 209 208 212 217 220 222 225 229 240 213 190 199 235 239 255 236 220 209
205 206 208 206 206 204 208 212 209 214 220 208 215 220 188 182 200 209 232 245 229 225